Regional Weather Roundup
Issued by NWS Charleston, WV

Home | Current Version | Previous Version | Text Only | Print | Product List | Glossary Off
Versions: 1 2 3 4 5 6 7 8 9 10 11 12 13 14 15 16 17 18 19 20 21 22 23 24 25 26 27 28 29 30 31 32 33 34 35 36 37 38 39 40 41 42 43 44 45 46 47 48 49 50

259
ASUS41 KRLX 112310
RWRRLX
West Virginia Regional Weather Roundup
National Weather Service Charleston WV
600 PM EST THU FEB 11 2016

Note: "fair" indicates few or no clouds below 12,000 feet with no
significant weather and/or obstructions to visibility.

WVZ003-120000-
Northern Panhandle of West Virginia

CITY           SKY/WX    TMP DP  RH WIND       PRES   REMARKS
WHEELING       CLOUDY    17   2  51 W9        30.22R WCI   6
$$

WVZ009-120000-
Northwest West Virginia

CITY           SKY/WX    TMP DP  RH WIND       PRES   REMARKS
PARKERSBURG    CLOUDY    20   4  50 W7        30.31R
$$

WVZ006-120000-
Western West Virginia

CITY           SKY/WX    TMP DP  RH WIND       PRES   REMARKS
HUNTINGTON       N/A     25   5  42 N6        30.28R
$$

WVZ015-120000-
West Central West Virginia

CITY           SKY/WX    TMP DP  RH WIND       PRES   REMARKS
CHARLESTON       N/A     23   4  44 NW5       30.27R
$$

WVZ022-031-120000-
North Central West Virginia

CITY           SKY/WX    TMP DP  RH WIND       PRES   REMARKS
CLARKSBURG     MOCLDY    17   3  54 NW6       30.23R WCI   9
MORGANTOWN     CLOUDY    18   1  47 NW7       30.23R WCI   9
$$

WVZ025-035-042-045-120000-
Southern West Virginia

CITY           SKY/WX    TMP DP  RH WIND       PRES   REMARKS
BECKLEY          N/A     18   3  52 N9        30.13R WCI   7
LOGAN            N/A     23   5  46 CALM      30.20R
BLUEFIELD        N/A     20   1  43 NW9       30.10R WCI   9
LEWISBURG        N/A     20   3  47 CALM      30.15R
$$

WVZ047-120000-
Northern Mountains of West Virginia

CITY           SKY/WX    TMP DP  RH WIND       PRES   REMARKS
ELKINS         CLOUDY    14   1  56 W5        30.18R WCI   6
$$

WVZ052-120000-
Eastern Panhandle of West Virginia

CITY           SKY/WX    TMP DP  RH WIND       PRES   REMARKS
MARTINSBURG    CLOUDY    21  -1  38 NW12      30.21R WCI   9
PETERSBURG     MOCLDY    20   1  43 CALM      30.24R
$$




USA.gov is the U.S. government's official web portal to all federal, state and local government web resources and services.